User: anonymous   Login
Location: Vancouver
(49.2500°N, 123.1330°W)
Time: 06:01:43
(UTC-07:00)
Language:

H-2A R/B - Orbit

View from above orbital plane
View from above orbital plane
View from above satellite
View from above satellite

Ground track
Ground track

The orbit data is extracted from the following two-line orbital elements,

1 27601U 02056E   16145.20696900  .00000060  00000-0  37502-4 0  9995
2 27601  98.4192 219.4367 0072303   9.0918  12.7886 14.31713373702155
Epoch (UTC): 24 May 2016 04:58:02
Eccentricity: 0.0072303
inclination: 98.4192°
perigee height: 734 km
apogee height: 838 km
right ascension of ascending node: 219.4367°
argument of perigee: 9.0918°
revolutions per day: 14.31713373
mean anomaly at epoch: 12.7886°
orbit number at epoch: 70215

The dashed part of the orbit path shows where the satellite is in the earth's shadow,  

DLR